Location: *
(43.7000°S, 168.7000°W)
Time: 15:02:04
(UTC+00:00)

SJ 16-02 - Pass Details

Date: 07 July 2020
Orbit: 606 x 617 km, 75.0° (Epoch: 04 August)

Event Time Altitude Azimuth Distance (km) Brightness Sun altitude
Exits shadow 17:41:00 - 205° (SSW) 2,239 3.8 -11.7°
Reaches altitude 10° 17:41:37 10° 206° (SSW) 1,996 3.5 -11.6°
Maximum altitude 17:46:01 62° 285° (WNW) 701 1.4 -10.8°
Drops below altitude 10° 17:50:22 10° 5° (N) 1,973 4.3 -10.1°
Sets 17:52:37 0° 8° (N) 2,871 5.2 -9.7°
